Probability
0 0 0 0 0 0 0 0 0 0 0 0 0 0 0 0 0 0 0 0 0 0 1 3 5 5 4 3 3 3 3 2 1 0 0 0 0 0 0 0 0 0 0 0 0 0 0 0 0
0 0 0 0 0 0 0 0 0 0 0 0 0 0 0 0 0 0 0 0 0 0 1 3 5 6 4 3 3 3 3 2 1 0 0 0 0 0 0 0 0 0 0 0 0 0 0 0 0
0 0 0 0 0 0 0 0 0 0 0 0 0 0 0 0 0 0 0 0 0 0 1 3 6 6 5 3 2 3 3 2 1 0 0 0 0 0 0 0 0 0 0 0 0 0 0 0 0
0 0 0 0 0 0 0 0 0 0 0 0 0 0 0 0 0 0 0 0 0 1 2 4 5 6 6 4 3 3 3 2 1 0 0 0 0 0 0 0 0 0 0 0 0 0 0 0 0
0 0 0 0 0 0 0 0 0 0 0 0 0 0 0 0 0 0 0 0 0 1 2 3 4 5 6 5 4 3 3 2 1 0 0 0 0 0 0 0 0 0 0 0 0 0 0 0 0
0 0 0 0 0 0 0 0 0 0 0 0 0 0 0 0 0 0 0 0 0 1 2 3 3 5 7 6 4 3 3 2 1 0 0 0 0 0 0 0 0 0 0 0 0 0 0 0 0
0 0 0 0 0 0 0 0 0 0 0 0 0 0 0 0 0 0 0 0 0 1 2 3 3 4 6 6 4 3 3 2 1 0 0 0 0 0 0 0 0 0 0 0 0 0 0 0 0
0 0 0 0 0 0 0 0 0 0 0 0 0 0 0 0 0 0 0 0 0 1 2 3 3 4 5 4 3 3 3 2 1 0 0 0 0 0 0 0 0 0 0 0 0 0 0 0 0
0 0 0 0 0 0 0 0 0 0 0 0 0 0 0 0 0 0 0 0 0 1 3 3 3 4 4 4 3 3 3 2 1 0 0 0 0 0 0 0 0 0 0 0 0 0 0 0 0
0 0 0 0 0 0 0 0 0 0 0 0 0 0 0 0 0 0 0 0 0 2 3 3 3 4 5 4 3 3 1 1 0 0 0 0 0 0 0 0 0 0 0 0 0 0 0 0 0
0 0 0 0 0 0 0 0 0 0 0 0 0 0 0 0 0 0 0 0 0 1 3 3 3 4 5 5 4 2 1 0 0 0 0 0 0 0 0 0 0 0 0 0 0 0 0 0 0
0 0 0 0 0 0 0 0 0 0 0 0 0 0 0 0 0 0 0 0 0 1 2 3 3 3 4 5 4 2 1 0 0 0 0 0 0 0 0 0 0 0 0 0 0 0 0 0 0
0 0 0 0 0 0 0 0 0 0 0 0 0 0 0 0 0 0 0 0 0 0 1 2 3 3 3 4 3 2 1 0 0 0 0 0 0 0 0 0 0 0 0 0 0 0 0 0 0
0 0 0 0 0 0 0 0 0 0 0 0 0 0 0 0 0 0 0 0 0 0 0 1 3 3 3 3 3 2 1 0 0 0 0 0 0 0 0 0 0 0 0 0 0 0 0 0 0
0 0 0 0 0 0 0 0 0 0 0 0 0 0 0 0 0 0 0 0 0 0 0 1 2 3 3 3 3 1 0 0 0 0 0 0 0 0 0 0 0 0 0 0 0 0 0 0 0
0 0 0 0 0 0 0 0 0 0 0 0 0 0 0 0 0 0 0 0 0 0 0 1 2 3 3 3 2 1 0 0 0 0 0 0 0 0 0 0 0 0 0 0 0 0 0 0 0
0 0 0 0 0 0 0 0 0 0 0 0 0 0 0 0 0 0 0 0 0 0 1 1 1 3 3 3 2 1 0 0 0 0 0 0 0 0 0 0 0 0 0 0 0 0 0 0 0
0 0 0 0 0 0 0 0 0 0 0 0 0 0 0 0 0 0 0 0 0 0 1 2 1 2 3 3 2 1 0 0 0 0 0 0 0 0 0 0 0 0 0 0 0 0 0 0 0
0 0 0 0 0 0 0 0 0 0 0 0 0 0 0 0 0 0 0 0 0 0 1 2 2 2 3 3 1 0 0 0 0 0 0 0 0 0 0 0 0 0 0 0 0 0 0 0 0
0 0 0 0 0 0 0 0 0 0 0 0 0 0 0 0 0 0 0 0 0 0 1 2 2 2 4 4 1 0 0 0 0 0 0 0 0 0 0 0 0 0 0 0 0 0 0 0 0
0 0 0 0 0 0 0 0 0 0 0 0 0 0 0 0 0 0 0 0 0 0 0 1 2 3 5 4 1 0 0 0 0 0 0 0 0 0 0 0 0 0 0 0 0 0 0 0 0
0 0 0 0 0 0 0 0 0 0 0 0 0 0 0 0 0 0 0 0 0 0 0 0 1 3 5 4 1 0 0 0 0 0 0 0 0 0 0 0 0 0 0 0 0 0 0 0 0
0 0 0 0 0 0 0 0 0 0 0 0 0 0 0 0 0 0 0 0 0 0 0 0 0 2 5 4 1 0 0 0 0 0 0 0 0 0 0 0 0 0 0 0 0 0 0 0 0
0 0 0 0 0 0 0 0 0 0 0 0 0 0 0 0 0 0 0 0 0 0 0 0 0 1 4 4 2 0 0 0 0 0 0 0 0 0 0 0 0 0 0 0 0 0 0 0 0
0 0 0 0 0 0 0 0 0 0 0 0 0 0 0 0 0 0 0 0 0 0 0 0 0 0 2 3 2 1 0 0 0 0 0 0 0 0 0 0 0 0 0 0 0 0 0 0 0
0 0 0 0 0 0 0 0 0 0 0 0 0 0 0 0 0 0 0 0 0 0 0 0 0 0 0 1 2 1 1 0 0 0 0 0 0 0 0 0 0 0 0 0 0 0 0 0 0
0 0 0 0 0 0 0 0 0 0 0 0 0 0 0 0 0 0 0 0 0 0 0 0 0 0 0 0 1 2 2 1 0 0 0 0 0 0 0 0 0 0 0 0 0 0 0 0 0
0 0 0 0 0 0 0 0 0 0 0 0 0 0 0 0 0 0 0 0 0 0 0 0 0 0 0 0 0 1 1 1 0 0 0 0 0 0 0 0 0 0 0 0 0 0 0 0 0
0 0 0 0 0 0 0 0 0 0 0 0 0 0 0 0 0 0 0 0 0 0 0 0 0 0 0 0 0 0 0 0 0 0 0 0 0 0 0 0 0 0 0 0 0 0 0 0 0
0 0 0 0 0 0 0 0 0 0 0 0 0 0 0 0 0 0 0 0 0 0 0 0 0 0 0 0 0 0 0 0 0 0 0 0 0 0 0 0 0 0 0 0 0 0 0 0 0
Wind_Speed
2 4 3 4 5 3 4 5 3 3 3 2 2 5 7 7 7 4 1 8 9 11 11 14 18 18 17 15 14 14 13 12 12 11 11 11 10 10 10 10 11 11 12 12 12 12 12 12 12
3 3 4 5 4 1 6 5 5 6 4 2 1 2 3 4 2 2 3 7 10 12 10 11 18 18 17 16 15 15 14 13 12 11 11 11 10 10 10 10 10 11 11 11 11 11 11 11 11
3 3 4 4 4 6 6 5 6 3 2 2 1 1 3 4 3 5 5 9 10 10 9 12 18 18 17 16 16 15 14 13 12 11 11 10 10 10 10 10 10 10 9 10 10 10 10 10 10
3 4 4 2 6 7 6 4 3 1 1 2 2 1 3 2 3 4 7 11 11 9 8 11 19 19 18 17 16 15 15 14 13 12 11 10 10 10 10 9 9 9 8 8 9 8 8 8 9
4 4 2 3 8 6 5 5 3 2 2 2 3 2 3 2 2 6 11 12 13 10 8 10 18 19 18 17 17 16 15 14 13 12 12 11 10 10 10 9 9 8 8 8 8 7 8 7 8
4 3 2 7 8 6 5 4 3 4 4 2 4 3 4 0 4 6 10 10 10 11 9 9 18 18 18 18 17 16 16 14 14 13 12 11 11 10 10 9 8 8 7 7 7 7 7 7 7
4 4 5 6 5 6 5 3 4 4 4 5 6 4 4 2 4 6 8 8 7 8 8 8 9 13 17 17 17 16 15 15 14 13 12 12 11 10 10 9 8 7 7 7 6 6 6 6 6
4 4 4 5 6 7 3 2 3 5 6 3 7 6 6 4 6 7 6 6 6 7 8 7 7 8 9 10 15 15 14 14 14 13 11 10 10 10 9 8 8 7 7 6 6 5 5 5 5
3 2 7 8 7 5 2 2 2 2 2 2 4 4 2 7 11 10 7 6 8 9 8 7 7 8 8 8 10 12 12 13 12 10 11 9 5 4 5 5 7 7 7 6 5 5 4 4 4
4 7 11 6 5 4 2 3 3 1 2 3 3 2 3 10 13 14 13 14 15 15 13 9 9 8 8 8 7 6 6 7 6 5 6 5 4 4 4 5 6 6 5 5 5 4 4 4 2
5 9 7 6 4 3 4 4 3 3 6 8 8 6 7 9 11 13 14 15 16 15 14 12 10 9 9 6 6 4 4 4 5 7 7 5 4 3 3 2 2 2 2 1 2 2 2 2 1
5 7 6 5 4 4 5 4 4 7 11 7 7 6 9 13 15 17 17 15 12 12 15 13 12 10 9 7 6 6 5 5 5 6 7 6 4 3 3 2 2 2 1 2 1 1 1 1 1
8 7 6 6 6 6 6 7 7 10 11 6 4 6 11 15 16 15 13 10 11 13 14 14 13 13 11 8 7 7 7 6 6 6 7 7 5 5 4 3 3 3 2 2 2 2 1 1 1
6 6 7 7 8 6 8 10 6 13 6 5 6 8 12 15 16 12 10 12 14 15 15 14 15 14 12 10 9 8 7 7 6 6 7 8 6 6 5 4 4 3 3 3 3 3 2 1 1
3 6 8 7 6 5 4 12 12 13 5 7 8 9 11 13 12 14 16 16 16 15 14 16 16 15 14 13 11 8 7 8 8 7 8 9 8 7 6 5 5 4 4 4 3 2 2 2 2
1 3 7 7 6 5 5 16 12 7 6 10 10 9 10 12 13 14 15 14 13 12 13 16 15 16 16 14 12 9 8 8 8 7 8 9 9 8 7 6 6 5 4 4 3 3 2 2 2
2 5 7 7 5 5 8 13 11 6 6 11 11 10 10 11 12 13 14 14 13 14 14 15 16 17 18 16 11 9 8 9 8 7 8 9 10 10 8 7 6 6 5 4 4 3 3 3 3
6 6 6 7 4 5 9 14 13 7 7 10 10 10 10 11 15 13 14 14 13 13 14 15 16 16 15 12 8 7 7 8 7 8 9 10 10 11 9 7 7 6 5 5 4 4 3 3 3
5 6 8 8 5 4 11 16 17 11 8 10 11 10 11 12 12 9 11 11 11 12 14 15 16 16 13 11 11 11 11 10 9 10 11 12 11 11 10 8 7 7 7 7 7 4 4 3 2
7 8 9 8 4 5 9 15 14 12 11 11 11 12 12 11 8 8 8 9 12 14 15 16 17 17 16 14 13 10 9 8 9 7 9 11 12 12 11 10 9 8 7 7 7 5 4 3 4
9 10 9 8 7 5 7 12 11 10 8 9 10 10 10 11 12 10 8 9 10 13 16 16 17 18 18 16 9 6 5 3 5 8 10 12 13 13 12 12 10 9 9 8 9 8 7 5 4
11 7 8 7 5 6 2 10 9 8 10 11 11 10 11 11 10 9 8 8 10 13 13 15 16 17 17 16 13 14 12 13 13 10 10 10 12 13 13 12 12 10 9 9 9 9 7 6 5
6 3 5 6 6 7 5 8 11 4 9 11 11 11 10 10 9 10 9 10 10 11 11 12 14 16 16 17 18 17 15 13 8 7 9 10 10 12 12 12 12 11 10 10 9 9 9 7 6
4 1 2 2 2 9 10 8 11 6 9 9 9 9 9 9 8 9 8 7 7 7 7 9 12 14 15 17 18 18 18 14 10 11 12 10 8 9 12 12 12 12 10 11 10 10 11 9 8
4 2 2 3 5 9 5 8 13 8 8 9 11 11 10 8 7 7 7 6 6 6 7 8 11 14 14 16 18 19 18 16 15 14 13 11 9 9 13 13 12 11 11 11 10 10 10 10 9
7 8 7 5 5 5 4 11 11 8 8 8 9 9 7 6 5 6 6 6 6 7 7 8 10 12 13 16 17 16 16 13 11 13 11 12 11 11 11 13 13 12 12 11 10 9 10 8 10
5 7 5 3 4 6 7 8 10 6 5 6 7 7 7 6 5 5 5 5 5 6 7 9 10 10 12 14 14 14 14 13 13 12 11 10 9 8 11 12 12 12 11 11 10 9 10 9 9
5 4 4 5 5 7 7 7 7 5 6 6 6 6 6 6 5 5 4 4 4 4 5 6 8 10 10 11 12 11 13 14 12 10 11 11 10 9 11 12 12 11 11 11 10 9 9 9 9
4 5 5 5 5 5 6 8 6 7 6 4 5 5 6 6 6 6 5 5 4 4 3 4 6 7 7 9 10 11 12 12 11 11 12 11 10 11 12 12 12 12 12 11 11 11 10 11 10
6 8 8 7 7 5 6 10 4 4 4 3 5 6 6 6 6 6 5 5 4 4 3 4 5 6 7 7 8 9 10 10 11 12 11 11 11 11 11 11 11 11 11 11 12 12 11 11 11
Wind_Direction
99 98 86 63 58 52 243 242 229 242 233 222 172 162 169 176 176 211 216 146 142 151 166 173 169 165 160 156 153 150 148 145 140 134 131 128 124 117 111 106 101 97 95 93 92 90 88 86 85
127 111 65 66 100 210 258 240 227 225 215 133 116 136 164 221 218 169 158 167 151 154 163 167 168 164 161 159 157 155 151 147 144 140 136 134 129 124 119 115 107 102 99 96 95 91 88 88 87
129 80 92 92 159 199 234 230 224 250 221 188 178 204 197 213 197 194 191 159 149 156 160 166 167 165 163 161 160 158 154 151 150 147 143 139 135 132 128 121 113 108 105 102 100 96 93 91 90
106 60 64 110 228 225 225 239 207 251 274 195 164 240 261 253 198 188 153 153 150 157 158 167 167 166 165 164 163 162 159 156 156 154 150 146 140 137 132 126 121 117 113 109 104 100 96 94 92
68 91 100 244 245 246 243 250 214 217 231 200 162 208 257 319 92 133 149 157 157 159 162 170 170 169 168 168 167 166 163 162 161 159 156 151 145 141 137 134 131 128 125 119 113 107 102 98 97
74 87 162 236 248 259 255 224 196 233 238 213 174 194 245 74 131 151 156 160 162 161 163 171 174 172 172 171 170 169 168 167 167 165 161 156 152 149 146 145 141 138 134 127 122 114 107 103 100
129 140 208 229 251 261 247 190 197 218 235 222 180 182 267 225 177 152 152 148 154 161 164 174 176 175 175 174 173 173 173 171 170 169 166 161 159 157 155 153 150 146 140 135 129 122 115 109 104
147 142 217 227 233 253 239 199 217 197 232 208 159 179 238 219 143 127 128 140 155 167 173 177 175 172 173 174 176 175 175 174 173 170 165 163 163 162 159 158 159 155 149 146 139 130 122 110 104
123 160 224 221 213 243 223 233 256 213 192 202 208 214 246 131 134 135 142 163 177 184 187 184 178 173 170 171 177 174 176 176 175 169 164 157 147 145 151 159 169 168 165 161 154 141 122 97 90
152 211 229 220 205 224 239 234 246 234 242 254 257 254 121 143 158 167 177 183 190 192 192 189 183 177 170 175 171 168 170 171 165 156 156 144 142 146 149 171 180 181 176 171 165 142 104 79 62
187 219 236 239 228 234 251 252 225 204 241 229 225 216 161 170 178 187 192 193 196 193 191 192 188 180 176 173 167 166 164 162 159 159 155 148 145 146 145 150 171 167 138 111 102 83 79 86 95
219 240 233 245 239 241 244 250 241 216 232 235 226 195 177 186 194 198 200 200 192 192 196 193 189 186 183 176 174 171 170 171 170 169 162 155 156 161 164 166 168 159 144 145 133 125 118 114 143
231 248 247 248 255 251 255 248 248 248 248 262 245 197 195 198 206 210 208 200 191 197 199 194 191 190 187 181 180 180 182 182 176 171 172 167 169 175 176 178 178 180 170 172 174 177 189 204 215
242 254 262 258 255 250 248 261 249 256 250 248 230 220 213 209 210 208 204 200 199 202 201 195 194 194 189 189 189 187 187 183 178 180 181 178 177 177 178 184 186 191 186 183 182 190 194 206 209
252 271 281 259 242 243 245 269 239 247 249 253 247 236 228 223 216 213 210 207 204 202 199 198 196 194 193 195 194 190 188 185 188 189 185 185 184 182 182 186 194 198 186 179 176 185 176 195 210
254 253 262 258 229 225 204 258 259 248 235 252 253 247 239 234 225 221 217 213 207 199 197 200 197 195 197 198 195 193 190 190 193 191 189 191 191 186 184 191 201 192 176 175 178 177 183 203 211
231 243 251 269 232 213 213 255 266 257 236 254 256 250 243 243 239 229 220 214 207 201 198 198 198 196 198 198 196 194 190 194 195 191 193 195 195 191 189 197 200 181 178 183 187 183 181 200 215
230 237 244 248 258 220 238 256 271 271 244 252 258 256 250 244 242 230 220 215 209 202 198 199 201 199 195 194 191 189 193 199 196 197 200 196 196 193 192 197 194 179 180 186 187 188 187 196 200
230 239 255 259 259 247 250 261 268 266 258 259 260 255 252 251 247 236 225 214 206 201 197 199 201 199 190 189 192 194 201 201 201 204 202 199 197 194 194 198 190 185 192 195 189 179 187 201 162
240 255 263 278 266 254 265 268 266 257 246 241 248 252 250 252 259 246 230 213 207 205 202 200 203 198 193 195 195 195 192 198 201 200 201 201 199 196 197 198 194 191 194 194 190 179 175 189 172
240 240 249 267 306 289 294 282 263 261 249 253 247 245 249 244 249 250 235 220 212 210 206 203 203 199 197 194 184 171 164 164 183 199 204 204 201 199 199 198 195 192 192 198 196 190 185 194 197
249 238 242 257 278 277 262 284 271 259 268 259 254 250 250 249 245 245 238 227 217 217 209 207 204 201 196 189 185 184 191 198 202 200 201 198 199 200 199 197 196 195 196 199 198 196 195 185 196
236 243 239 243 244 267 245 263 276 252 260 258 253 253 254 253 246 246 240 232 226 218 210 207 204 202 194 191 193 194 202 207 198 186 191 196 199 201 200 198 197 198 199 201 197 195 198 197 196
215 278 268 238 228 256 234 227 273 226 234 257 261 262 259 259 255 254 251 242 236 223 212 205 204 205 196 194 196 198 203 201 189 191 195 198 198 200 202 199 200 201 201 201 201 199 200 203 203
182 170 264 254 228 245 209 217 253 239 234 239 256 265 267 262 261 264 265 252 242 227 214 206 203 206 198 196 200 202 205 201 201 199 199 196 197 201 202 199 201 201 203 201 197 197 201 202 201
202 184 200 227 237 269 223 231 253 254 253 257 262 267 278 274 266 262 258 251 244 231 216 207 208 208 200 200 204 204 204 203 206 203 199 199 202 204 196 197 200 201 200 199 197 199 202 201 206
193 207 203 227 268 270 254 271 295 282 290 287 284 288 289 287 284 278 278 267 254 239 222 211 210 211 204 203 204 205 204 204 206 202 200 201 202 195 191 195 198 199 198 198 195 203 204 202 206
201 171 157 199 233 254 261 251 251 284 288 294 300 302 306 315 321 319 310 295 280 258 237 218 212 212 209 203 203 205 205 205 204 198 200 202 199 192 189 193 197 197 197 196 196 202 202 202 206
190 190 200 209 217 225 263 261 226 231 249 270 289 301 308 318 322 321 313 303 294 291 270 236 222 216 212 207 206 204 204 202 199 201 204 202 196 192 193 194 195 196 197 195 198 204 199 203 207
208 205 195 214 233 224 250 267 256 244 270 295 308 315 319 318 317 314 316 322 321 307 286 260 235 223 219 208 204 207 202 196 199 204 204 197 196 195 195 192 193 197 197 196 199 203 202 204 207